OE3APM-13 Weather Reports


Display with metric or nautical units.
time (UTC)temp
F
wind
direction
speed
MPH
gust
MPH
rain 1hr
in
rain 24hr
in
rain mn
in
humidity
%
barometer
mb
20260504025403 49 46 2.0 5.0 0.00 0.00 0.00 71 1013.7
20260504024904 49 32 1.0 4.0 0.00 0.00 0.00 71 1013.7
20260504024402 49 53 1.0 3.0 0.00 0.00 0.00 71 1013.7
20260504023905 49 57 2.0 5.0 0.00 0.00 0.00 71 1013.7
20260504023359 49 15 3.0 5.0 0.00 0.00 0.00 70 1013.7
20260504022851 50 26 4.0 5.0 0.00 0.00 0.00 70 1013.7
20260504022345 50 15 3.0 6.0 0.00 0.00 0.00 69 1013.7
20260504021840 50 5 3.0 7.0 0.00 0.00 0.00 69 1013.6
20260504021341 50 82 3.0 7.0 0.00 0.00 0.00 68 1013.6
20260504020840 50 74 3.0 7.0 0.00 0.00 0.00 68 1013.6
20260504020337 50 63 3.0 7.0 0.00 0.00 0.00 68 1013.6
20260504015837 51 49 3.0 6.0 0.00 0.00 0.00 68 1013.5
20260504015337 51 33 3.0 7.0 0.00 0.00 0.00 68 1013.5
20260504014835 51 78 3.0 7.0 0.00 0.00 0.00 68 1013.6
20260504014333 51 66 2.0 5.0 0.00 0.00 0.00 68 1013.6
20260504013833 51 74 3.0 5.0 0.00 0.00 0.00 69 1013.6
20260504013335 51 67 4.0 6.0 0.00 0.00 0.00 67 1013.6
20260504012835 51 35 4.0 6.0 0.00 0.00 0.00 67 1013.6
20260504012333 51 31 4.0 6.0 0.00 0.00 0.00 66 1013.5
20260504011833 51 13 3.0 7.0 0.00 0.00 0.00 66 1013.5
20260504011334 52 73 3.0 7.0 0.00 0.00 0.00 65 1013.5
20260504010832 52 40 4.0 7.0 0.00 0.00 0.00 65 1013.5
20260504010330 52 21 3.0 6.0 0.00 0.00 0.00 65 1013.6
20260504005830 53 11 2.0 5.0 0.00 0.00 0.00 64 1013.5
20260504005324 53 109 3.0 5.0 0.00 0.00 0.00 64 1013.5
20260504004819 53 49 4.0 7.0 0.00 0.00 0.00 63 1013.6
20260504004315 53 36 4.0 7.0 0.00 0.00 0.00 62 1013.5
20260504003815 53 37 3.0 5.0 0.00 0.00 0.00 62 1013.4
20260504003317 54 52 3.0 6.0 0.00 0.00 0.00 61 1013.5
20260504002817 54 59 3.0 6.0 0.00 0.00 0.00 61 1013.4
20260504002315 54 40 3.0 8.0 0.00 0.00 0.00 60 1013.4
20260504001811 54 90 3.0 8.0 0.00 0.00 0.00 60 1013.4
20260504001309 54 65 3.0 8.0 0.00 0.00 0.00 60 1013.4
20260504000810 54 63 3.0 8.0 0.00 0.00 0.00 60 1013.5
20260504000308 55 66 3.0 7.0 0.00 0.00 0.00 59 1013.5
20260503235809 55 22 3.0 7.0 0.00 0.00 0.00 59 1013.5
20260503235309 55 42 3.0 8.0 0.00 0.00 0.00 59 1013.4
20260503234804 55 43 4.0 8.0 0.00 0.00 0.00 59 1013.4
20260503234303 55 33 3.0 7.0 0.00 0.00 0.00 59 1013.4
20260503233801 55 44 3.0 6.0 0.00 0.00 0.00 58 1013.4
20260503233301 55 19 3.0 7.0 0.00 0.00 0.00 58 1013.4
20260503232802 55 16 3.0 7.0 0.00 0.00 0.00 58 1013.4
20260503232301 55 54 3.0 7.0 0.00 0.00 0.00 58 1013.5
20260503231759 56 43 3.0 7.0 0.00 0.00 0.00 57 1013.5
20260503231252 56 64 3.0 7.0 0.00 0.00 0.00 57 1013.6
20260503230747 56 36 3.0 7.0 0.00 0.00 0.00 57 1013.6
20260503230235 56 40 2.0 5.0 0.00 0.00 0.00 56 1013.7
20260503225734 56 71 3.0 7.0 0.00 0.00 0.00 56 1013.7
20260503225235 56 54 3.0 7.0 0.00 0.00 0.00 56 1013.7
20260503224733 56 44 3.0 7.0 0.00 0.00 0.00 56 1013.8
20260503224233 57 37 3.0 7.0 0.00 0.00 0.00 55 1013.7
20260503223732 57 52 3.0 5.0 0.00 0.00 0.00 55 1013.7
20260503223231 57 53 3.0 5.0 0.00 0.00 0.00 55 1013.7
20260503222730 58 77 3.0 7.0 0.00 0.00 0.00 55 1013.7
20260503222230 58 39 3.0 8.0 0.00 0.00 0.00 54 1013.7
20260503221730 58 66 3.0 8.0 0.00 0.00 0.00 54 1013.7
20260503221229 58 58 3.0 8.0 0.00 0.00 0.00 54 1013.7
20260503220732 59 75 4.0 8.0 0.00 0.00 0.00 53 1013.7
20260503220228 59 80 3.0 8.0 0.00 0.00 0.00 53 1013.8
20260503215726 59 52 3.0 8.0 0.00 0.00 0.00 52 1013.7
20260503215227 60 70 3.0 8.0 0.00 0.00 0.00 52 1013.7
20260503214726 60 65 3.0 8.0 0.00 0.00 0.00 52 1013.7
20260503214227 60 67 4.0 9.0 0.00 0.00 0.00 51 1013.7
20260503213723 60 93 4.0 9.0 0.00 0.00 0.00 51 1013.7
20260503213224 60 43 4.0 10.0 0.00 0.00 0.00 52 1013.7
20260503212721 60 48 3.0 10.0 0.00 0.00 0.00 51 1013.8
20260503212226 60 67 3.0 11.0 0.00 0.00 0.00 51 1013.8
20260503211717 60 103 4.0 11.0 0.00 0.00 0.00 51 1013.8
20260503211218 60 62 4.0 9.0 0.00 0.00 0.00 50 1013.9
20260503210715 60 34 3.0 8.0 0.00 0.00 0.00 51 1013.9
20260503210214 61 108 3.0 8.0 0.00 0.00 0.00 50 1013.9
20260503205712 61 37 4.0 10.0 0.00 0.00 0.00 50 1014.0
20260503205209 61 31 3.0 10.0 0.00 0.00 0.00 50 1014.0
20260503204710 61 61 3.0 8.0 0.00 0.00 0.00 50 1014.0
20260503204206 61 82 4.0 9.0 0.00 0.00 0.00 49 1014.0
20260503203703 61 83 4.0 10.0 0.00 0.00 0.00 49 1014.0
20260503203203 62 118 4.0 14.0 0.00 0.00 0.00 49 1014.0
20260503202704 62 82 5.0 14.0 0.00 0.00 0.00 49 1014.0
20260503202202 62 115 4.0 13.0 0.00 0.00 0.00 48 1014.0
20260503201701 62 71 4.0 13.0 0.00 0.00 0.00 48 1014.0
20260503201201 62 94 5.0 11.0 0.00 0.00 0.00 48 1014.1
20260503200700 62 38 5.0 11.0 0.00 0.00 0.00 48 1014.1
20260503200205 62 49 5.0 10.0 0.00 0.00 0.00 48 1014.1
20260503195701 63 79 4.0 10.0 0.00 0.00 0.00 48 1014.1
20260503195156 63 96 5.0 13.0 0.00 0.00 0.00 48 1014.2
20260503194653 63 92 5.0 13.0 0.00 0.00 0.00 47 1014.1
20260503194150 63 29 5.0 13.0 0.00 0.00 0.00 47 1014.1
20260503193647 63 81 6.0 11.0 0.00 0.00 0.00 47 1014.2
20260503193146 64 65 5.0 13.0 0.00 0.00 0.00 46 1014.2
20260503192643 64 66 5.0 13.0 0.00 0.00 0.00 46 1014.2
20260503192141 64 111 5.0 12.0 0.00 0.00 0.00 46 1014.1
20260503191641 64 11 6.0 12.0 0.00 0.00 0.00 46 1014.1
20260503191142 64 107 7.0 15.0 0.00 0.00 0.00 46 1014.1
20260503190638 65 107 7.0 15.0 0.00 0.00 0.00 45 1014.1
20260503190137 65 96 5.0 12.0 0.00 0.00 0.00 45 1014.1
20260503185638 65 121 5.0 12.0 0.00 0.00 0.00 45 1014.1
20260503185138 65 107 6.0 14.0 0.00 0.00 0.00 45 1014.1
20260503184636 65 103 5.0 14.0 0.00 0.00 0.00 44 1014.1
20260503184134 66 76 4.0 11.0 0.00 0.00 0.00 44 1014.0
20260503183635 66 94 5.0 15.0 0.00 0.00 0.00 44 1014.0
20260503183133 66 77 6.0 15.0 0.00 0.00 0.00 43 1013.9
20260503182631 66 125 6.0 14.0 0.00 0.00 0.00 43 1013.8
20260503182131 67 92 6.0 15.0 0.00 0.00 0.00 43 1013.9
20260503181630 67 107 6.0 15.0 0.00 0.00 0.00 43 1013.9
20260503181129 67 111 7.0 15.0 0.00 0.00 0.00 43 1013.8
20260503180626 67 73 7.0 16.0 0.00 0.00 0.00 42 1013.9
20260503180120 68 118 6.0 16.0 0.00 0.00 0.00 42 1013.8
20260503175614 68 99 6.0 14.0 0.00 0.00 0.00 41 1013.8
20260503175103 69 108 7.0 16.0 0.00 0.00 0.00 41 1013.9
20260503174603 69 163 8.0 17.0 0.00 0.00 0.00 40 1013.8
20260503174101 69 142 8.0 21.0 0.00 0.00 0.00 40 1013.8
20260503173603 70 98 7.0 21.0 0.00 0.00 0.00 40 1013.8
20260503173102 70 118 6.0 14.0 0.00 0.00 0.00 39 1013.9
20260503172603 71 91 6.0 14.0 0.00 0.00 0.00 39 1013.8
20260503172102 71 75 6.0 14.0 0.00 0.00 0.00 39 1013.9
20260503171603 71 96 7.0 14.0 0.00 0.00 0.00 38 1013.8
20260503171102 72 100 7.0 15.0 0.00 0.00 0.00 37 1013.9
20260503170602 72 156 7.0 15.0 0.00 0.00 0.00 37 1013.8
20260503170105 72 154 6.0 15.0 0.00 0.00 0.00 37 1013.9
20260503150531 76 124 10.0 18.0 0.00 0.00 0.00 31 1014.2
20260503131004 76 117 12.0 20.0 0.00 0.00 0.00 31 1015.6
20260503130502 76 125 10.0 20.0 0.00 0.00 0.00 30 1015.7
20260503110427 73 25 7.0 15.0 0.00 0.00 0.00 39 1017.0
20260503090407 68 121 8.0 16.0 0.00 0.00 0.00 43 1018.0
20260503081345 64 66 6.0 17.0 0.00 0.00 0.00 48 1018.1
20260503080843 64 85 7.0 14.0 0.00 0.00 0.00 50 1018.1
20260503080343 64 142 8.0 15.0 0.00 0.00 0.00 51 1018.1
20260503072830 62 71 4.0 11.0 0.00 0.00 0.00 50 1018.1
20260503072335 61 98 5.0 11.0 0.00 0.00 0.00 51 1018.1
20260503071835 61 122 5.0 10.0 0.00 0.00 0.00 51 1018.1
20260503071331 61 71 4.0 10.0 0.00 0.00 0.00 51 1018.2
20260503070831 60 82 4.0 10.0 0.00 0.00 0.00 51 1018.2
20260503070331 60 84 5.0 11.0 0.00 0.00 0.00 52 1018.1
20260503060306 56 72 3.0 8.0 0.00 0.00 0.00 54 1018.0
20260503054804 55 45 3.0 7.0 0.00 0.00 0.00 56 1017.9
20260503054305 54 135 2.0 6.0 0.00 0.00 0.00 57 1017.9
20260503053806 53 59 3.0 7.0 0.00 0.00 0.00 58 1017.9
20260503053306 52 9 2.0 7.0 0.00 0.00 0.00 60 1017.9
20260503052805 52 36 3.0 7.0 0.00 0.00 0.00 60 1017.9
20260503052306 51 45 4.0 8.0 0.00 0.00 0.00 60 1017.9
20260503051805 50 71 4.0 9.0 0.00 0.00 0.00 63 1017.9
20260503051305 49 21 4.0 9.0 0.00 0.00 0.00 65 1017.8
20260503050804 49 58 4.0 8.0 0.00 0.00 0.00 67 1017.8
20260503050304 47 41 4.0 10.0 0.00 0.00 0.00 70 1017.7
20260503045803 45 38 4.0 10.0 0.00 0.00 0.00 74 1017.8
20260503045305 43 95 4.0 9.0 0.00 0.00 0.00 76 1017.8
20260503044803 42 49 4.0 7.0 0.00 0.00 0.00 80 1017.8
20260503044302 40 73 3.0 7.0 0.00 0.00 0.00 84 1017.8
20260503043757 39 42 3.0 5.0 0.00 0.00 0.00 86 1017.8
20260503043253 38 47 3.0 5.0 0.00 0.00 0.00 87 1017.8
20260503042753 38 25 3.0 5.0 0.00 0.00 0.00 87 1017.7
20260503042252 37 42 3.0 4.0 0.00 0.00 0.00 87 1017.8
20260503041753 37 43 2.0 4.0 0.00 0.00 0.00 87 1017.7
20260503041253 37 26 1.0 3.0 0.00 0.00 0.00 86 1017.7
20260503040752 37 37 1.0 3.0 0.00 0.00 0.00 85 1017.7
20260503040250 38 37 0.0 3.0 0.00 0.00 0.00 86 1017.7
20260503035752 38 37 0.0 0.0 0.00 0.00 0.00 87 1017.6
20260503035248 38 37 0.0 0.0 0.00 0.00 0.00 87 1017.6
20260503034747 38 37 1.0 2.0 0.00 0.00 0.00 85 1017.7
20260503034243 38 37 1.0 3.0 0.00 0.00 0.00 85 1017.7
20260503033742 38 37 1.0 3.0 0.00 0.00 0.00 86 1017.6
20260503033241 38 37 1.0 2.0 0.00 0.00 0.00 86 1017.6
20260503032742 38 37 1.0 2.0 0.00 0.00 0.00 86 1017.6
20260503032241 38 37 2.0 3.0 0.00 0.00 0.00 86 1017.7
20260503031740 38 37 2.0 3.0 0.00 0.00 0.00 86 1017.7
20260503031238 39 37 3.0 5.0 0.00 0.00 0.00 84 1017.6
20260503030738 39 24 2.0 5.0 0.00 0.00 0.00 84 1017.7
20260503030238 39 30 2.0 4.0 0.00 0.00 0.00 87 1017.7